Flag for U.S.A. Weather past 2 weeks in Virginia Beach, Virginia, U.S.A.

Now
66 °F

Passing clouds.


Feels Like: 66 °F
Forecast: 51 / 66 °F
Wind: 13 mph from North

Location: Virginia Beach - Oceana

Current Time: Apr 28, 2015 at 4:46:36 PM

Latest Report: Apr 28, 2015 at 3:56 PM


Visibility: 10 mi

Pressure: 29.87 "Hg

Humidity: 42%

Dew point: 42 °F

Location of Virginia BeachLocation

Historic Weather in Virginia Beach — Graph

°F

Virginia Beach temperature yesterday

Maximum temperature yesterday: 64 °F (at 1:56 PM)
Minimum temperature yesterday: 42 °F (at 3:56 AM)
Average temperature yesterday: 55 °F

Past Weeks' High & Low Weather Summary

 TemperatureHumidityPressure
High81 °F (Apr 20, 2:56 PM)93% (Apr 19, 3:56 AM)30.40 "Hg (Apr 19, 3:56 AM)
Low42 °F (Apr 27, 3:56 AM)22% (Apr 22, 3:56 PM)29.62 "Hg (Apr 26, 2:56 AM)
Average61 °F65%29.94 "Hg
* Reported Apr 13 3:56 PM — Apr 28 3:56 PM, Virginia Beach, Weather by CustomWeather, © 2015

Note: Actual official high and low records may vary slightly from our data, if they occured in-between our weather recording intervals... More about our weather records

Advertising

Virginia Beach weather history for previous 24 hours

 ConditionsComfort  
Time TempWeatherWind HumidityBarometerVisibility
3:56 PM
Tue, Apr 28
66 °FPassing clouds.13 mph42%29.87 "Hg10 mi
2:56 PM66 °FScattered clouds.14 mph47%29.88 "Hg10 mi
1:56 PM64 °FScattered clouds.12 mph50%29.90 "Hg10 mi
12:56 PM62 °FScattered clouds.12 mph52%29.90 "Hg10 mi
11:56 AM61 °FPassing clouds.13 mph54%29.91 "Hg10 mi
10:56 AM59 °FPassing clouds.13 mph56%29.92 "Hg10 mi
9:56 AM57 °FPassing clouds.17 mph58%29.89 "Hg10 mi
8:56 AM55 °FSunny.20 mph62%29.88 "Hg10 mi
7:56 AM53 °FSunny.17 mph61%29.89 "Hg10 mi
6:56 AM51 °FClear.10 mph63%29.89 "Hg10 mi
5:56 AM50 °FClear.15 mph63%29.86 "Hg10 mi
4:56 AM50 °FClear.15 mph63%29.86 "Hg10 mi
3:56 AM51 °FClear.14 mph63%29.86 "Hg10 mi
2:56 AM52 °FClear.18 mph61%29.85 "Hg10 mi
1:56 AM54 °FClear.21 mph55%29.85 "Hg10 mi
12:56 AM54 °FClear.15 mph55%29.87 "Hg10 mi
11:56 PM
Mon, Apr 27
52 °FPassing clouds.7 mph57%29.87 "Hg10 mi
10:56 PM54 °FPassing clouds.8 mph55%29.85 "Hg10 mi
9:56 PM54 °FPassing clouds.7 mph62%29.85 "Hg10 mi
8:56 PM56 °FMostly cloudy.3 mph58%29.83 "Hg10 mi
7:56 PM58 °FMore clouds than sun.6 mph47%29.81 "Hg10 mi
6:56 PM60 °FOvercast.6 mph46%29.78 "Hg10 mi
5:56 PM62 °FPartly sunny.7 mph41%29.79 "Hg10 mi
4:56 PM63 °FPartly sunny.10 mph38%29.77 "Hg10 mi
Weather by CustomWeather, © 2015

See weather overviewHow to use our weather pages